Regional Weather Roundup
Issued by NWS

Home | Current Version | Previous Version | Text Only | Print | Product List | Glossary Off
Versions: 1 2 3 4 5 6 7 8 9 10 11 12 13 14 15 16 17 18 19 20 21 22 23 24 25 26 27 28 29 30 31 32 33 34 35 36 37 38 39 40 41 42 43 44 45 46 47 48 49 50

824
ASUS43 KBIS 062310
RWRND

NORTH DAKOTA REGIONAL WEATHER ROUNDUP
NATIONAL WEATHER SERVICE BISMARCK ND
500 PM CST SAT FEB 06 2016

NOTE: "FAIR" INDICATES FEW OR NO CLOUDS BELOW 12,000 FEET WITH NO
SIGNIFICANT WEATHER AND/OR OBSTRUCTIONS TO VISIBILITY.


NDZ001>003-009>011-017-070000-
NORTHWEST NORTH DAKOTA

CITY           SKY/WX    TMP DP  RH WIND       PRES   REMARKS
WILLISTON      CLEAR     46  27  47 W29G43    29.63F
MINOT          CLEAR     50  26  39 W21G29    29.56F
MINOT AFB      CLEAR     47  29  49 W25G33    29.54F
$$

NDZ018>021-031>035-040>046-070000-
SOUTHWEST NORTH DAKOTA

CITY           SKY/WX    TMP DP  RH WIND       PRES   REMARKS
BISMARCK       CLOUDY    53  27  36 W17G29    29.68F
DICKINSON      CLEAR     45  18  34 W31G39    29.71R
GARRISON         N/A     48  24  39 W21G33    29.62F
HETTINGER ARPT PTCLDY    47  20  34 W24G36    29.80R
$$

NDZ004>008-012>016-024-026-027-054-070000-
NORTHEAST NORTH DAKOTA

CITY           SKY/WX    TMP DP  RH WIND       PRES   REMARKS
GRAND FORKS    CLOUDY    37  32  82 S12       29.58F
GRND FRKS AFB  CLOUDY    39  31  74 SW13      29.57F
DEVILS LAKE    MOCLDY    39  31  72 W24G30    29.58R
$$

NDZ022-023-025-028>030-036>039-047>053-070000-
SOUTHEAST NORTH DAKOTA

CITY           SKY/WX    TMP DP  RH WIND       PRES   REMARKS
FARGO          CLOUDY    38  33  82 SW12      29.66S
JAMESTOWN      LGT RAIN  42  33  70 W22G29    29.68R
$$





USA.gov is the U.S. government's official web portal to all federal, state and local government web resources and services.